DW1590 Weather Reports


Display with metric or nautical units.
time (UTC)temp
F
wind
direction
speed
MPH
gust
MPH
rain 1hr
in
rain 24hr
in
rain mn
in
humidity
%
barometer
mb
20260507021526 67 322 4.0 0.0 0.00 0.00 0.11 100 1008.1
20260507020024 67 348 5.0 0.0 0.00 0.00 0.11 100 1008.2
20260507014521 67 265 2.0 0.0 0.00 0.00 0.11 100 1008.3
20260507013016 67 275 1.0 0.0 0.00 0.00 0.11 100 1008.7
20260507011524 68 338 1.0 0.0 0.00 0.00 0.11 100 1008.6
20260507010004 68 215 0.0 0.0 0.00 0.00 0.11 100 1008.3
20260507004600 68 211 0.0 0.0 0.00 0.00 0.11 100 1008.2
20260507003101 68 209 1.0 0.0 0.00 0.00 0.11 100 1007.9
20260507001552 68 205 1.0 0.0 0.00 0.00 0.11 100 1007.7
20260507000049 69 190 1.0 0.0 0.00 0.00 0.11 100 1007.8
20260506234552 69 107 0.0 0.0 0.00 0.00 0.11 100 1007.6
20260506233047 69 196 1.0 0.0 0.00 0.00 0.11 100 1007.6
20260506231535 69 200 1.0 0.0 0.00 0.00 0.11 100 1007.0
20260506230029 70 162 1.0 0.0 0.00 0.00 0.11 100 1007.1
20260506224526 70 198 1.0 0.0 0.00 0.00 0.11 100 1006.9
20260506223021 69 177 2.0 0.0 0.00 0.00 0.11 100 1007.0
20260506221516 69 200 4.0 0.0 0.00 0.00 0.11 100 1007.0
20260506220012 70 208 2.0 0.0 0.00 0.00 0.11 100 1007.1
20260506214507 70 183 4.0 0.0 0.00 0.00 0.11 100 1007.0
20260506213003 70 192 2.0 0.0 0.00 0.00 0.11 100 1006.8
20260506211559 70 225 2.0 0.0 0.00 0.00 0.11 100 1006.8
20260506210054 70 201 3.0 0.0 0.00 0.00 0.11 100 1006.7
20260506204551 69 208 2.0 0.0 0.00 0.00 0.11 100 1006.6
20260506203046 69 213 3.0 0.0 0.00 0.00 0.11 100 1006.6
20260506201542 69 192 5.0 0.0 0.00 0.00 0.11 100 1006.6
20260506200040 70 200 3.0 0.0 0.00 0.00 0.11 100 1006.7
20260506194533 70 217 4.0 0.0 0.00 0.00 0.11 100 1006.4
20260506193028 70 254 2.0 0.0 0.00 0.00 0.11 100 1006.6
20260506191524 70 217 5.0 0.0 0.00 0.00 0.11 100 1006.8
20260506190020 69 216 4.0 0.0 0.00 0.00 0.11 100 1006.9
20260506184515 67 227 4.0 0.0 0.00 0.00 0.11 100 1007.2
20260506183012 66 254 5.0 0.0 0.00 0.00 0.11 100 1007.3
20260506181506 65 213 6.0 0.0 0.00 0.00 0.11 100 1007.4
20260506180002 64 235 4.0 0.0 0.00 0.00 0.11 100 1007.6
20260506174558 64 199 5.0 0.0 0.00 0.00 0.11 100 1007.8
20260506173124 63 216 5.0 0.0 0.00 0.00 0.11 100 1007.7
20260506171549 63 229 5.0 0.0 0.00 0.00 0.11 100 1007.7
20260506170046 63 199 5.0 0.0 0.00 0.00 0.11 100 1007.7
20260506164541 62 196 5.0 0.0 0.00 0.00 0.11 100 1007.9
20260506163038 62 217 7.0 0.0 0.00 0.00 0.11 100 1008.2
20260506161532 62 190 6.0 0.0 0.00 0.00 0.11 100 1008.1
20260506160028 62 200 5.0 0.0 0.00 0.00 0.11 100 1008.1
20260506154523 62 174 5.0 0.0 0.00 0.00 0.10 100 1008.2
20260506153018 62 202 4.0 0.0 0.00 0.00 0.10 100 1008.2
20260506151513 62 121 4.0 0.0 0.00 0.00 0.10 100 1008.4
20260506150010 62 175 5.0 0.0 0.00 0.00 0.10 100 1008.8
20260506144505 62 198 5.0 0.0 0.00 0.00 0.10 100 1009.2
20260506143002 62 197 3.0 0.0 0.00 0.00 0.09 100 1009.1
20260506141557 62 190 3.0 0.0 0.00 0.00 0.08 100 1009.2
20260506140053 63 209 3.0 0.0 0.00 0.00 0.06 100 1009.1
20260506134548 63 171 3.0 0.0 0.00 0.00 0.05 100 1009.2
20260506133044 63 207 4.0 0.0 0.00 0.00 0.02 100 1009.6
20260506131548 64 190 4.0 0.0 0.00 0.00 0.02 100 1009.1
20260506130051 64 206 4.0 0.0 0.00 0.00 0.01 100 1008.9
20260506124530 65 180 4.0 0.0 0.00 0.00 0.00 100 1008.7
20260506123026 65 192 4.0 0.0 0.00 0.00 0.00 100 1008.8
20260506121522 65 223 3.0 0.0 0.00 0.00 0.00 100 1009.3
20260506120020 65 203 6.0 0.0 0.00 0.00 0.00 9 1009.3
20260506114516 66 199 5.0 0.0 0.00 0.00 0.00 20 1009.1
20260506113013 66 165 5.0 0.0 0.00 0.00 0.00 24 1008.9
20260506111511 66 234 6.0 0.0 0.00 0.00 0.00 23 1008.6
20260506110009 66 231 6.0 0.0 0.00 0.00 0.00 24 1008.5
20260506104506 66 159 6.0 0.0 0.00 0.00 0.00 25 1008.4
20260506103003 66 156 6.0 0.0 0.00 0.00 0.00 26 1008.2
20260506101504 66 181 5.0 0.0 0.00 0.00 0.00 29 1008.2
20260506100119 66 180 4.0 0.0 0.00 0.00 0.00 32 1008.1
20260506094556 66 209 4.0 0.0 0.00 0.00 0.00 36 1008.3
20260506093054 66 196 5.0 0.0 0.00 0.00 0.00 41 1008.4
20260506091551 67 198 4.0 0.0 0.00 0.00 0.00 47 1008.5
20260506090049 67 162 4.0 0.0 0.00 0.00 0.00 51 1008.5
20260506084607 67 196 6.0 0.0 0.00 0.00 0.00 54 1008.7
20260506083044 68 195 5.0 0.0 0.00 0.00 0.00 57 1008.6
20260506081547 68 164 4.0 0.0 0.00 0.00 0.00 59 1008.7
20260506073043 69 173 5.0 0.0 0.00 0.00 0.00 62 1008.5
20260506071536 69 180 4.0 0.0 0.00 0.00 0.00 62 1008.7
20260506061525 70 176 4.0 0.0 0.00 0.00 0.00 60 1008.9
20260506044526 72 173 7.0 0.0 0.00 0.00 0.00 56 1009.5
20260506043009 73 205 6.0 0.0 0.00 0.00 0.00 55 1009.5
20260506041506 73 206 7.0 0.0 0.00 0.00 0.00 55 1009.4
20260506040006 73 157 7.0 0.0 0.00 0.00 0.00 55 1009.4
20260506034508 73 200 7.0 0.0 0.00 0.00 0.00 54 1009.4
20260506033007 73 209 7.0 0.0 0.00 0.00 0.00 54 1009.5
20260506031503 73 186 6.0 0.0 0.00 0.00 0.00 52 1009.3
20260506030003 73 215 5.0 0.0 0.00 0.00 0.00 51 1009.3
20260506024502 73 200 4.0 0.0 0.00 0.00 0.00 49 1009.4
20260506023002 74 202 4.0 0.0 0.00 0.00 0.00 48 1009.4